This demonstration page uses our WeatherBlox Daily Observations layout. Learn more.

Left ArrowRight Arrow

40.92945, -100.16068

Hourly Observations for February 21, 2021

Temp ( °F °C ) Dew Point ( °F °C ) Humidity (%) Winds ( mph kmh ) Pressure ( in mb ) Visibility ( mi km ) Precip ( " mm )
12:15 am 00:15 Cloudy 31 -0.8 28 -2.3 90 90 N 5 7 29.95 1014 7 11.26538 N/A
12:35 am 00:35 Cloudy 30 -0.9 28 -2.4 90 90 NE 6 9 29.96 1014 7 11.26538 N/A
12:55 am 00:55 Cloudy 31 -0.6 28 -2.2 89 89 NE 3 6 29.95 1014 7 11.26538 N/A
1:15 am 01:15 Cloudy with Light Snow 31 -0.5 28 -2 90 90 E 7 11 29.93 1014 2.5 4.02335 N/A
1:35 am 01:35 Cloudy 31 -0.5 29 -1.7 92 92 N 9 15 29.92 1013 7 11.26538 N/A
1:55 am 01:55 Cloudy 31 -0.5 29 -1.6 92 92 E 6 9 29.92 1013 7 11.26538 N/A
2:15 am 02:15 Cloudy 31 -0.5 29 -1.7 92 92 E 3 6 29.93 1014 7 11.26538 N/A
2:35 am 02:35 Cloudy 31 -0.3 29 -1.6 91 91 E 5 7 29.91 1013 7 11.26538 N/A
2:55 am 02:55 Cloudy with Light Snow 31 -0.3 29 -1.7 90 90 N N/A 29.91 1013 7 11.26538 N/A
3:15 am 03:15 Cloudy with Mist and Fog 31 -0.5 29 -1.5 93 93 N N/A 29.9 1013 5 8.0467 N/A
3:35 am 03:35 Cloudy with Mist and Fog 31 -0.7 29 -1.6 94 94 NNW 7 11 29.9 1013 5 8.0467 N/A
3:55 am 03:55 Cloudy with Mist and Fog 31 -0.7 29 -1.5 94 94 NNW 5 7 29.91 1013 5 8.0467 N/A
4:15 am 04:15 Cloudy with Light Snow 31 -0.6 30 -1.3 95 95 NNW 6 9 29.91 1013 3 4.82802 N/A
4:35 am 04:35 Cloudy with Light Snow 31 -0.6 30 -1.3 95 95 NNW 5 7 29.92 1013 2.5 4.02335 N/A
4:55 am 04:55 Cloudy with Light Snow 31 -0.7 29 -1.5 94 94 N N/A 29.9 1013 2.5 4.02335 N/A
5:15 am 05:15 Cloudy with Light Snow 31 -0.7 30 -1.3 96 96 NNW 5 7 29.91 1013 2.5 4.02335 N/A
5:35 am 05:35 Cloudy with Mist and Fog 30 -1 29 -1.6 96 96 NNW 6 9 29.92 1013 3 4.82802 N/A
5:55 am 05:55 Cloudy with Mist and Fog 30 -1.2 29 -1.9 95 95 NW 8 13 29.92 1013 4 6.43736 N/A
6:15 am 06:15 Cloudy with Mist and Fog 30 -1 29 -1.7 95 95 NW 8 13 29.92 1013 4 6.43736 N/A
6:35 am 06:35 Cloudy 32 -0.1 29 -1.5 90 90 NW 14 22 29.93 1013 10 16.0934 N/A
6:55 am 06:55 Cloudy 32 undefined 29 -1.7 88 88 NNW 14 22 29.93 1013 10 16.0934 N/A
7:15 am 07:15 Cloudy 32 undefined 28 -2.2 85 85 NNW 16 26 29.94 1014 10 16.0934 N/A
7:35 am 07:35 Mostly Cloudy 31 -0.3 27 -3 82 82 NNW 16 26 29.96 1015 10 16.0934 N/A
7:55 am 07:55 Mostly Cloudy 32 undefined 28 -2 87 87 NNW 20 31 29.97 1015 10 16.0934 N/A
8:15 am 08:15 Cloudy 33 0.3 29 -1.5 88 88 N 17 28 29.96 1015 10 16.0934 N/A
8:35 am 08:35 Cloudy 32 undefined 29 -1.7 88 88 N 17 28 29.97 1015 10 16.0934 N/A
8:55 am 08:55 Partly Cloudy 32 0.2 29 -1.7 87 87 NNW 16 26 29.97 1015 10 16.0934 N/A
9:15 am 09:15 Partly Cloudy 33 0.6 29 -1.6 85 85 NNW 14 22 29.98 1015 10 16.0934 N/A
9:35 am 09:35 Partly Cloudy 32 undefined 28 -2.1 86 86 NW 14 22 30 1016 10 16.0934 N/A
9:55 am 09:55 Sunny 34 0.9 28 -2 81 81 NW 18 30 30 1016 10 16.0934 N/A
10:15 am 10:15 Sunny 34 1 27 -3 75 75 NW 21 33 30.01 1016 10 16.0934 N/A
10:35 am 10:35 Sunny 34 1.2 25 -3.7 70 70 NNW 17 28 30 1016 10 16.0934 N/A
10:55 am 10:55 Sunny 34 1 24 -4.3 68 68 NW 18 30 30.02 1016 10 16.0934 N/A
11:15 am 11:15 Sunny 34 1.2 24 -4.2 68 68 NW 16 26 30.01 1016 10 16.0934 N/A
11:35 am 11:35 Sunny 35 1.7 25 -4.1 66 66 NW 17 28 30.02 1017 10 16.0934 N/A
11:55 am 11:55 Sunny 36 2 25 -4 65 65 NW 21 33 30.03 1017 10 16.0934 N/A
12:15 pm 12:15 Sunny 36 2.3 25 -4 63 63 NW 21 33 30.03 1017 10 16.0934 N/A
12:35 pm 12:35 Sunny 37 2.5 25 -3.7 64 64 NW 21 33 30.03 1017 10 16.0934 N/A
12:55 pm 12:55 Sunny 37 2.6 26 -3.6 64 64 NW 22 35 30.03 1017 10 16.0934 N/A
1:15 pm 13:15 Sunny 37 2.6 26 -3.6 64 64 NW 22 35 30.03 1017 10 16.0934 N/A
1:35 pm 13:35 Sunny 37 2.5 28 -2.5 70 70 WNW 20 31 30.03 1017 10 16.0934 N/A
1:55 pm 13:55 Sunny 37 2.5 28 -2.5 70 70 WNW 21 33 30.02 1017 10 16.0934 N/A
2:15 pm 14:15 Sunny 37 2.5 27 -2.6 69 69 WNW 21 33 30.02 1017 10 16.0934 N/A
2:35 pm 14:35 Sunny 37 2.5 27 -2.6 69 69 WNW 20 31 30.02 1017 10 16.0934 N/A
2:55 pm 14:55 Sunny 37 2.6 28 -2.5 69 69 WNW 21 33 30.02 1017 10 16.0934 N/A
3:15 pm 15:15 Sunny 37 3 27 -2.6 67 67 WNW 22 35 30.03 1017 10 16.0934 N/A
3:35 pm 15:35 Sunny 37 3 27 -2.7 67 67 WNW 22 35 30.04 1017 10 16.0934 N/A
3:55 pm 15:55 Sunny 37 3 27 -3 65 65 WNW 20 31 30.04 1017 10 16.0934 N/A
4:15 pm 16:15 Sunny 37 3 27 -2.8 66 66 WNW 17 28 30.04 1017 10 16.0934 N/A
4:35 pm 16:35 Sunny 38 3.1 26 -3.5 62 62 WNW 17 28 30.04 1017 10 16.0934 N/A
4:55 pm 16:55 Sunny 37 3 26 -3.3 64 64 WNW 15 24 30.04 1017 10 16.0934 N/A
5:15 pm 17:15 Sunny 37 2.9 26 -3.3 64 64 WNW 16 26 30.04 1017 10 16.0934 N/A
5:35 pm 17:35 Sunny 37 2.7 25 -3.7 63 63 WNW 16 26 30.04 1017 10 16.0934 N/A
5:55 pm 17:55 Sunny 36 2.2 25 -3.9 64 64 WNW 15 24 30.06 1018 10 16.0934 N/A
6:15 pm 18:15 Sunny 36 2 24 -4.2 64 64 WNW 14 22 30.06 1018 10 16.0934 N/A
6:35 pm 18:35 Clear 33 0.7 25 -4 71 71 WNW 10 17 30.08 1019 10 16.0934 N/A
6:55 pm 18:55 Clear 33 0.4 25 -4.1 72 72 WNW 10 17 30.08 1019 10 16.0934 N/A
7:15 pm 19:15 Clear 32 0.1 24 -4.6 71 71 WNW 10 17 30.1 1019 10 16.0934 N/A
7:35 pm 19:35 Clear 31 -0.8 23 -4.8 75 75 W 7 11 30.1 1019 10 16.0934 N/A
7:55 pm 19:55 Clear 31 -0.8 22 -5.3 72 72 W 10 17 30.1 1019 10 16.0934 N/A
8:15 pm 20:15 Clear 30 -1.1 22 -5.3 73 73 W 10 17 30.12 1020 10 16.0934 N/A
8:35 pm 20:35 Clear 30 -1.1 23 -5.2 74 74 W 9 15 30.12 1020 10 16.0934 N/A
8:55 pm 20:55 Clear 30 -1.2 22 -5.4 73 73 W 9 15 30.12 1020 10 16.0934 N/A
9:15 pm 21:15 Clear 28 -2.2 21 -6 75 75 W 9 15 30.14 1021 10 16.0934 N/A
9:35 pm 21:35 Clear 27 -2.7 21 -6.2 77 77 W 9 15 30.14 1021 10 16.0934 N/A
9:55 pm 21:55 Clear 28 -2.5 21 -6.2 76 76 W 10 17 30.14 1021 10 16.0934 N/A
10:15 pm 22:15 Clear 26 -3.1 20 -6.8 76 76 W 9 15 30.15 1021 10 16.0934 N/A
10:35 pm 22:35 Clear 26 -3.1 19 -7 75 75 W 8 13 30.15 1021 10 16.0934 N/A
10:55 pm 22:55 Clear 25 -4.1 18 -7.6 77 77 W 8 13 30.16 1021 10 16.0934 N/A
11:15 pm 23:15 Clear 26 -3.1 19 -7 75 75 W 10 17 30.13 1020 10 16.0934 N/A
11:35 pm 23:35 Clear 27 -2.8 19 -7 73 73 W 10 17 30.13 1020 10 16.0934 N/A
11:55 pm 23:55 Clear 28 -2.5 20 -6.9 72 72 W 9 15 30.12 1020 10 16.0934 N/A

Powered by AerisWeather